SUNNYSIDE Weather Reports


Display with metric or nautical units.
time (UTC)temp
F
wind
direction
speed
MPH
gust
MPH
rain 1hr
in
rain 24hr
in
rain mn
in
humidity
%
barometer
mb
20260905222530 79 123 2.0 7.0 0.00 0.24 0.24 49 984.2
20260905222030 79 152 4.0 7.0 0.00 0.24 0.24 48 984.2
20260905221530 79 130 3.0 10.0 0.00 0.24 0.24 48 984.4
20260905221032 79 184 5.0 10.0 0.00 0.24 0.24 48 984.1
20260905220529 79 173 5.0 10.0 0.00 0.24 0.24 49 984.2
20260905220029 79 113 3.0 11.0 0.00 0.24 0.24 51 984.1
20260905215529 79 119 6.0 12.0 0.00 0.24 0.24 49 984.0
20260905215030 79 138 4.0 12.0 0.00 0.24 0.24 50 984.0
20260905214528 79 110 6.0 12.0 0.00 0.24 0.24 49 984.1
20260905214027 79 121 5.0 11.0 0.00 0.24 0.24 49 984.1
20260905213526 78 123 5.0 13.0 0.00 0.24 0.24 43 984.2
20260905213026 78 110 6.0 13.0 0.00 0.24 0.24 44 984.2
20260905212530 78 153 6.0 11.0 0.00 0.24 0.24 44 984.2
20260905212024 78 131 5.0 14.0 0.00 0.24 0.24 44 984.3
20260905211538 78 122 6.0 14.0 0.00 0.24 0.24 45 984.3
20260905211022 78 142 8.0 14.0 0.00 0.24 0.24 46 984.4
20260905210522 78 129 9.0 14.0 0.00 0.24 0.24 46 984.4
20260905210034 78 134 9.0 15.0 0.00 0.24 0.24 46 984.4
20260905205521 77 113 7.0 15.0 0.00 0.24 0.24 46 984.4
20260905205019 77 101 7.0 14.0 0.00 0.24 0.24 46 984.4
20260905204520 77 155 6.0 17.0 0.00 0.24 0.24 47 984.4
20260905204019 77 141 8.0 14.0 0.00 0.24 0.24 48 984.5
20260905203517 77 169 10.0 13.0 0.00 0.24 0.24 48 984.4
20260905203017 76 129 7.0 13.0 0.00 0.24 0.24 48 984.5
20260905202517 76 203 7.0 14.0 0.00 0.24 0.24 50 984.5
20260905202014 76 109 8.0 14.0 0.00 0.24 0.24 51 984.7
20260905201513 76 103 8.0 14.0 0.00 0.24 0.24 52 984.9
20260905201012 75 109 9.0 14.0 0.00 0.24 0.24 52 984.8
20260905200516 75 103 8.0 13.0 0.00 0.24 0.24 52 984.7
20260905200021 75 174 5.0 11.0 0.00 0.24 0.24 52 984.8
20260905195512 75 157 6.0 12.0 0.00 0.24 0.24 53 984.8
20260905195008 75 360 4.0 12.0 0.00 0.24 0.24 54 984.6
20260905194507 74 101 7.0 12.0 0.00 0.24 0.24 56 984.7
20260905194006 74 101 6.0 11.0 0.00 0.24 0.24 57 984.6
20260905193505 73 127 6.0 11.0 0.00 0.24 0.24 58 984.7
20260905193003 73 121 5.0 11.0 0.00 0.24 0.24 58 984.6
20260905192502 73 120 5.0 12.0 0.00 0.24 0.24 58 984.5
20260905192002 73 184 3.0 11.0 0.00 0.24 0.24 59 984.5
20260905191607 73 98 5.0 13.0 0.00 0.24 0.24 59 984.4
20260905191100 73 88 7.0 13.0 0.00 0.24 0.24 59 984.4
20260905190600 72 82 7.0 14.0 0.00 0.24 0.24 60 984.4
20260905190103 72 176 9.0 14.0 0.00 0.24 0.24 60 984.5
20260905185556 72 107 9.0 13.0 0.00 0.24 0.24 60 984.6
20260905185055 71 98 6.0 11.0 0.00 0.24 0.24 62 984.6
20260905184559 71 103 3.0 9.0 0.00 0.24 0.24 63 984.7
20260905184052 70 148 4.0 9.0 0.00 0.24 0.24 63 984.8
20260905183552 69 101 3.0 9.0 0.00 0.24 0.24 64 984.8
20260905183051 69 103 3.0 8.0 0.00 0.24 0.24 65 984.8
20260905182549 69 132 3.0 9.0 0.00 0.24 0.24 65 984.9
20260905182048 68 99 2.0 9.0 0.00 0.24 0.24 66 985.0
20260905181548 68 86 1.0 9.0 0.00 0.24 0.24 67 984.9
20260905181046 67 145 3.0 9.0 0.00 0.24 0.24 67 985.0
20260905180547 67 121 2.0 9.0 0.00 0.24 0.24 67 984.9
20260905180052 67 74 3.0 9.0 0.00 0.24 0.24 67 985.0
20260905175543 66 67 2.0 7.0 0.00 0.24 0.24 67 985.1
20260905175041 66 55 2.0 7.0 0.00 0.24 0.24 68 985.0
20260905174541 66 107 2.0 6.0 0.00 0.24 0.24 68 985.0
20260905174043 66 63 2.0 9.0 0.00 0.24 0.24 68 985.1
20260905173541 65 76 3.0 9.0 0.00 0.24 0.24 67 985.2
20260905173101 65 75 1.0 9.0 0.00 0.24 0.24 67 985.2
20260905172541 66 99 3.0 8.0 0.00 0.24 0.24 67 985.0
20260905172042 66 32 1.0 8.0 0.00 0.24 0.24 67 984.9
20260905171541 66 107 1.0 6.0 0.00 0.24 0.24 67 985.0
20260905171042 66 60 2.0 8.0 0.00 0.24 0.24 67 985.2
20260905170541 66 57 4.0 8.0 0.00 0.24 0.24 67 985.3
20260905170044 67 103 3.0 6.0 0.00 0.24 0.24 67 985.5
20260905165540 67 123 1.0 5.0 0.00 0.24 0.24 67 985.6
20260905165039 67 104 1.0 5.0 0.00 0.24 0.24 67 985.4
20260905164539 67 140 1.0 6.0 0.00 0.24 0.24 68 985.4
20260905164040 67 67 2.0 6.0 0.00 0.24 0.24 67 985.2
20260905163540 67 49 1.0 5.0 0.00 0.24 0.24 68 985.1
20260905163038 67 151 0.0 6.0 0.00 0.24 0.24 68 985.0
20260905162537 67 60 2.0 6.0 0.00 0.24 0.24 68 985.1
20260905162036 67 42 0.0 4.0 0.00 0.24 0.24 68 985.2
20260905161546 66 42 0.0 4.0 0.00 0.24 0.24 68 985.3
20260905161035 66 96 0.0 2.0 0.00 0.24 0.24 68 985.1
20260905160536 66 88 0.0 2.0 0.00 0.24 0.24 68 985.0
20260905160034 66 76 0.0 2.0 0.00 0.24 0.24 68 984.8
20260905155535 66 82 0.0 3.0 0.00 0.24 0.24 68 984.5
20260905155033 66 67 0.0 3.0 0.00 0.24 0.24 68 984.9
20260905154533 66 65 0.0 3.0 0.01 0.24 0.24 68 984.8
20260905154033 66 107 0.0 9.0 0.01 0.24 0.24 68 984.9
20260905153532 66 105 2.0 9.0 0.01 0.24 0.24 68 984.9
20260905153033 65 171 4.0 9.0 0.01 0.24 0.24 68 984.5
20260905152533 66 153 3.0 11.0 0.01 0.24 0.24 68 984.3
20260905152033 66 125 6.0 12.0 0.02 0.24 0.24 68 984.3
20260905151532 66 128 6.0 31.0 0.03 0.24 0.24 70 984.7
20260905151030 66 146 6.0 31.0 0.06 0.24 0.24 70 984.2
20260905150534 65 120 3.0 15.0 0.08 0.24 0.24 70 984.8
20260905150030 65 22 2.0 16.0 0.11 0.24 0.24 70 985.0
20260905145530 64 345 6.0 12.0 0.13 0.24 0.24 70 984.4
20260905145025 63 52 4.0 21.0 0.14 0.23 0.23 70 983.4
20260905144525 63 88 8.0 25.0 0.15 0.23 0.23 70 981.9
20260905144023 62 34 10.0 25.0 0.16 0.23 0.23 70 984.0
20260905143521 61 92 12.0 19.0 0.17 0.23 0.23 70 984.4
20260905143021 61 360 12.0 19.0 0.18 0.23 0.23 70 985.0
20260905142520 61 89 10.0 16.0 0.18 0.23 0.23 70 985.9
20260905142020 61 123 5.0 20.0 0.18 0.22 0.22 70 985.9
20260905141520 61 82 10.0 20.0 0.17 0.21 0.21 70 985.6
20260905141022 61 106 6.0 9.0 0.14 0.18 0.18 70 987.4
20260905140523 61 145 5.0 8.0 0.11 0.15 0.15 70 988.1
20260905140018 60 132 2.0 7.0 0.09 0.13 0.13 70 988.4
20260905135519 60 132 1.0 6.0 0.07 0.10 0.10 70 988.7
20260905135019 60 209 0.0 6.0 0.06 0.09 0.09 70 988.6
20260905134519 60 180 1.0 6.0 0.05 0.08 0.08 70 988.6
20260905134017 60 233 2.0 6.0 0.04 0.07 0.07 70 988.4
20260905133517 60 184 0.0 5.0 0.03 0.06 0.06 70 988.6
20260905133024 60 196 2.0 5.0 0.03 0.05 0.05 70 988.3
20260905132517 60 180 0.0 5.0 0.03 0.05 0.05 70 988.5
20260905132015 60 159 2.0 5.0 0.02 0.04 0.04 70 988.1
20260905131523 60 139 1.0 4.0 0.04 0.04 0.04 70 987.8
20260905131017 60 22 0.0 3.0 0.04 0.04 0.04 70 987.6
20260905130515 60 22 1.0 4.0 0.04 0.04 0.04 70 987.2
20260905130014 60 22 1.0 4.0 0.04 0.04 0.04 70 987.1
20260905125517 60 22 0.0 4.0 0.03 0.03 0.03 70 987.4
20260905125014 60 360 2.0 4.0 0.03 0.03 0.03 70 987.6
20260905124513 60 255 0.0 0.0 0.03 0.03 0.03 70 987.8
20260905124012 59 255 0.0 0.0 0.03 0.03 0.03 70 987.9
20260905123513 59 255 0.0 0.0 0.03 0.03 0.03 70 987.8
20260905123013 59 255 0.0 2.0 0.02 0.02 0.02 70 987.8
20260905122512 59 255 0.0 3.0 0.02 0.02 0.02 70 987.7
20260905122012 59 255 1.0 2.0 0.02 0.02 0.02 70 987.8
20260905121512 59 252 0.0 3.0 0.00 0.00 0.00 70 987.8
20260905121013 59 252 1.0 3.0 0.00 0.00 0.00 70 988.0
20260905120513 59 252 1.0 2.0 0.00 0.00 0.00 70 987.7
20260905120009 59 252 0.0 0.0 0.00 0.00 0.00 70 987.4
20260905115509 59 252 0.0 1.0 0.00 0.00 0.00 70 987.2
20260905115011 59 252 0.0 1.0 0.00 0.00 0.00 70 987.2
20260905114509 58 252 0.0 3.0 0.00 0.00 0.00 70 987.2
20260905114008 58 252 0.0 5.0 0.00 0.00 0.00 70 987.1
20260905113508 58 254 3.0 5.0 0.00 0.00 0.00 70 987.2
20260905113011 59 255 2.0 4.0 0.00 0.00 0.00 70 987.1
20260905112506 58 250 2.0 4.0 0.00 0.00 0.00 70 987.0
20260905112005 58 360 0.0 1.0 0.00 0.00 0.00 70 986.5
20260905111506 58 360 0.0 0.0 0.00 0.00 0.00 70 986.2
20260905111004 58 360 0.0 1.0 0.00 0.00 0.00 70 985.9
20260905110503 58 360 0.0 2.0 0.00 0.00 0.00 70 985.8
20260905110004 58 124 0.0 4.0 0.00 0.00 0.00 70 985.7
20260905105507 58 124 2.0 4.0 0.00 0.00 0.00 70 985.6
20260905105002 58 106 0.0 3.0 0.00 0.00 0.00 70 985.6
20260905104502 58 109 0.0 2.0 0.00 0.00 0.00 70 985.7
20260905104004 58 109 0.0 3.0 0.00 0.00 0.00 70 985.6
20260905103505 58 109 0.0 4.0 0.00 0.00 0.00 70 985.3
20260905103006 58 119 1.0 4.0 0.00 0.00 0.00 70 985.3
20260905102501 58 129 1.0 3.0 0.00 0.00 0.00 70 985.3
20260905102004 58 127 0.0 3.0 0.00 0.00 0.00 70 985.3
20260905101502 58 360 1.0 3.0 0.00 0.00 0.00 70 985.1
20260905101002 58 117 0.0 3.0 0.00 0.00 0.00 70 985.0
20260905100501 58 103 0.0 3.0 0.00 0.00 0.00 69 985.1
20260905100002 58 102 0.0 4.0 0.00 0.00 0.00 70 985.1
20260905095501 58 123 2.0 6.0 0.00 0.00 0.00 70 985.2
20260905095100 58 360 2.0 4.0 0.00 0.00 0.00 70 985.2
20260905094600 58 120 2.0 3.0 0.00 0.00 0.00 70 985.1
20260905094059 58 107 1.0 3.0 0.00 0.00 0.00 70 984.9
20260905093559 58 117 1.0 4.0 0.00 0.00 0.00 70 985.0
20260905093059 58 102 2.0 4.0 0.00 0.00 0.00 70 985.1
20260905092602 58 123 0.0 2.0 0.00 0.00 0.00 70 984.9
20260905092058 58 123 0.0 2.0 0.00 0.00 0.00 70 985.0
20260905091608 58 123 0.0 2.0 0.00 0.00 0.00 70 985.0
20260905091100 58 123 0.0 3.0 0.00 0.00 0.00 69 985.1
20260905090559 58 123 1.0 3.0 0.00 0.00 0.00 69 985.2
20260905090056 58 123 1.0 3.0 0.00 0.00 0.00 69 985.5
20260905085556 58 123 1.0 3.0 0.00 0.00 0.00 69 985.5
20260905085055 58 98 0.0 3.0 0.00 0.00 0.00 69 985.5
20260905084558 58 98 0.0 3.0 0.00 0.00 0.00 69 985.5
20260905084054 58 97 0.0 3.0 0.00 0.00 0.00 69 985.6
20260905083553 58 110 0.0 2.0 0.00 0.00 0.00 69 985.7
20260905083107 58 106 0.0 2.0 0.00 0.00 0.00 69 985.8
20260905082551 58 105 0.0 3.0 0.00 0.00 0.00 69 985.9
20260905082051 58 105 1.0 3.0 0.00 0.00 0.00 69 986.0
20260905081550 59 110 1.0 3.0 0.00 0.00 0.00 69 986.0
20260905081049 59 113 1.0 3.0 0.00 0.00 0.00 69 986.1
20260905080548 59 110 2.0 4.0 0.00 0.00 0.00 69 986.1
20260905080048 59 100 1.0 4.0 0.00 0.00 0.00 68 986.1
20260905075547 59 117 1.0 3.0 0.00 0.00 0.00 68 985.9
20260905075046 60 117 1.0 3.0 0.00 0.00 0.00 68 986.1
20260905074548 60 125 1.0 4.0 0.00 0.00 0.00 68 985.9
20260905074045 60 138 2.0 4.0 0.00 0.00 0.00 69 986.0
20260905073545 60 139 1.0 4.0 0.00 0.00 0.00 68 986.0
20260905073045 60 143 2.0 4.0 0.00 0.00 0.00 69 986.1
20260905072549 60 129 1.0 4.0 0.00 0.00 0.00 69 986.1
20260905072044 60 123 2.0 4.0 0.00 0.00 0.00 69 986.0
20260905071544 60 126 1.0 3.0 0.00 0.00 0.00 68 985.9
20260905071044 60 89 0.0 1.0 0.00 0.00 0.00 68 986.0
20260905070544 60 89 0.0 4.0 0.00 0.00 0.00 68 986.0
20260905070042 60 89 1.0 4.0 0.00 0.00 0.00 68 985.9
20260905065541 61 121 1.0 3.0 0.00 0.00 0.00 68 985.9
20260905065040 61 123 0.0 4.0 0.00 0.00 0.00 68 985.9
20260905064541 61 124 1.0 4.0 0.00 0.00 0.00 68 985.9
20260905064041 61 105 1.0 2.0 0.00 0.00 0.00 68 986.0
20260905063540 61 109 0.0 3.0 0.00 0.00 0.00 68 986.0
20260905063040 61 111 0.0 3.0 0.00 0.00 0.00 68 986.0
20260905062540 61 360 0.0 3.0 0.00 0.00 0.00 68 985.9
20260905062040 61 360 0.0 2.0 0.00 0.00 0.00 68 985.9
20260905061542 61 115 0.0 0.0 0.00 0.00 0.00 68 985.9
20260905061037 61 115 0.0 0.0 0.00 0.00 0.00 68 985.9
20260905060538 61 115 0.0 0.0 0.00 0.00 0.00 68 985.9
20260905060044 61 115 0.0 1.0 0.00 0.00 0.00 67 985.9
20260905055537 61 115 0.0 1.0 0.00 0.00 0.00 67 986.0
20260905055036 61 115 0.0 1.0 0.00 0.00 0.00 67 985.9
20260905054602 61 115 0.0 0.0 0.00 0.00 0.00 67 986.0
20260905054036 61 115 0.0 0.0 0.00 0.00 0.00 67 986.0
20260905053539 61 115 0.0 1.0 0.00 0.00 0.00 67 986.0
20260905053035 61 115 0.0 1.0 0.00 0.00 0.00 67 986.0
20260905052533 62 115 0.0 1.0 0.00 0.00 0.00 67 986.0
20260905052033 62 115 0.0 1.0 0.00 0.00 0.00 67 986.1
20260905051534 62 115 0.0 0.0 0.00 0.00 0.00 67 986.2
20260905051031 62 115 0.0 0.0 0.00 0.00 0.00 67 986.1
20260905050534 62 115 0.0 0.0 0.00 0.00 0.00 67 985.9
20260905050031 63 115 0.0 0.0 0.00 0.00 0.00 67 985.8
20260905045533 63 115 0.0 0.0 0.00 0.00 0.00 67 985.7
20260905045029 63 115 0.0 0.0 0.00 0.00 0.00 67 985.7
20260905044530 63 115 0.0 0.0 0.00 0.00 0.00 67 985.8
20260905044028 63 115 0.0 1.0 0.00 0.00 0.00 67 985.7
20260905043528 63 115 0.0 1.0 0.00 0.00 0.00 67 985.8
20260905043029 63 115 0.0 0.0 0.00 0.00 0.00 67 985.8
20260905042528 63 115 0.0 0.0 0.00 0.00 0.00 67 985.7
20260905042028 63 115 0.0 0.0 0.00 0.00 0.00 67 985.6
20260905041528 63 115 0.0 0.0 0.00 0.00 0.00 67 985.7
20260905041027 63 115 0.0 0.0 0.00 0.00 0.00 66 985.6
20260905040531 63 115 0.0 0.0 0.00 0.00 0.00 66 985.6
20260905040027 63 115 0.0 0.0 0.00 0.00 0.00 66 985.5
20260905035528 63 115 0.0 0.0 0.00 0.00 0.00 66 985.5
20260905035028 63 115 0.0 0.0 0.00 0.00 0.00 65 985.5
20260905034527 63 115 0.0 0.0 0.00 0.00 0.00 65 985.6
20260905034027 64 115 0.0 0.0 0.00 0.00 0.00 64 985.6
20260905033528 64 115 0.0 0.0 0.00 0.00 0.00 65 985.6
20260905033028 64 115 0.0 0.0 0.00 0.00 0.00 64 985.6
20260905032526 64 115 0.0 0.0 0.00 0.00 0.00 64 985.5
20260905032026 64 115 0.0 0.0 0.00 0.00 0.00 64 985.7
20260905031526 65 115 0.0 0.0 0.00 0.00 0.00 64 985.6
20260905031025 65 115 0.0 0.0 0.00 0.00 0.00 64 985.6
20260905030526 65 115 0.0 0.0 0.00 0.00 0.00 64 985.6
20260905030033 65 115 0.0 0.0 0.00 0.00 0.00 64 985.5
20260905025527 65 115 0.0 0.0 0.00 0.00 0.00 63 985.4
20260905025026 65 115 0.0 1.0 0.00 0.00 0.00 64 985.6
20260905024525 65 115 0.0 1.0 0.00 0.00 0.00 64 985.5
20260905024024 65 115 0.0 1.0 0.00 0.00 0.00 63 985.5
20260905023525 66 115 0.0 0.0 0.00 0.00 0.00 63 985.4
20260905023024 66 115 0.0 0.0 0.00 0.00 0.00 62 985.4
20260905022524 66 115 0.0 0.0 0.00 0.00 0.00 62 985.4
20260905022026 67 115 0.0 0.0 0.00 0.00 0.00 61 985.4
20260905021525 67 115 0.0 0.0 0.00 0.00 0.00 61 985.3
20260905021024 67 115 0.0 0.0 0.00 0.00 0.00 61 985.0
20260905020527 67 115 0.0 2.0 0.00 0.00 0.00 61 985.2
20260905020023 67 115 0.0 2.0 0.00 0.00 0.00 61 985.2
20260905015523 68 115 0.0 1.0 0.00 0.00 0.00 61 985.2
20260905015024 68 115 0.0 0.0 0.00 0.00 0.00 60 985.0
20260905014523 68 115 0.0 0.0 0.00 0.00 0.00 60 984.9
20260905014022 68 115 0.0 0.0 0.00 0.00 0.00 59 984.9
20260905013524 69 115 0.0 0.0 0.00 0.00 0.00 58 984.9
20260905013022 69 115 0.0 0.0 0.00 0.00 0.00 57 984.8
20260905012524 70 115 0.0 0.0 0.00 0.00 0.00 57 984.8
20260905012022 70 115 0.0 0.0 0.00 0.00 0.00 58 984.8
20260905011522 71 115 0.0 0.0 0.00 0.00 0.00 58 984.8
20260905011022 71 115 0.0 0.0 0.00 0.00 0.00 57 984.6
20260905010521 72 115 0.0 1.0 0.00 0.00 0.00 57 984.6
20260905010021 73 115 0.0 1.0 0.00 0.00 0.00 57 984.6
20260905005521 73 115 0.0 0.0 0.00 0.00 0.00 56 984.6
20260905005021 74 115 0.0 0.0 0.00 0.00 0.00 56 984.5
20260905004521 74 115 0.0 1.0 0.00 0.00 0.00 56 984.3
20260905004021 74 115 0.0 1.0 0.00 0.00 0.00 56 984.3
20260905003521 74 115 0.0 1.0 0.00 0.00 0.00 56 984.4
20260905003023 75 360 0.0 3.0 0.00 0.00 0.00 56 984.5
20260905002522 75 360 1.0 6.0 0.00 0.00 0.00 55 984.6
20260905002020 75 123 1.0 4.0 0.00 0.00 0.00 55 984.6
20260905001521 76 87 1.0 5.0 0.00 0.00 0.00 55 984.6
20260905001021 76 76 2.0 5.0 0.00 0.00 0.00 55 984.7
20260905000526 76 130 1.0 6.0 0.00 0.00 0.00 55 984.7
20260905000031 76 114 2.0 6.0 0.00 0.00 0.00 55 984.8
20260904235521 76 124 3.0 6.0 0.00 0.00 0.00 55 984.9
20260904235019 76 144 2.0 4.0 0.00 0.00 0.00 55 984.9
20260904234522 76 117 2.0 8.0 0.00 0.00 0.00 54 984.8
20260904234019 77 128 3.0 10.0 0.00 0.00 0.00 54 984.9
20260904233519 77 123 4.0 10.0 0.00 0.00 0.00 54 984.9
20260904233020 77 360 3.0 8.0 0.00 0.00 0.00 54 984.8
20260904232518 77 132 4.0 8.0 0.00 0.00 0.00 54 984.8
20260904232020 77 137 3.0 8.0 0.00 0.00 0.00 53 984.8
20260904231520 77 66 3.0 8.0 0.00 0.00 0.00 53 984.7
20260904231018 77 138 2.0 9.0 0.00 0.00 0.00 54 984.7
20260904230518 77 107 5.0 9.0 0.00 0.00 0.00 53 984.8
20260904230019 77 101 5.0 8.0 0.00 0.00 0.00 54 984.8
20260904225519 77 140 4.0 12.0 0.00 0.00 0.00 54 984.8
20260904225017 78 91 6.0 12.0 0.00 0.00 0.00 53 984.7
20260904224520 78 144 5.0 11.0 0.00 0.00 0.00 53 984.9
20260904224017 78 86 5.0 12.0 0.00 0.00 0.00 53 984.8
20260904223516 78 360 7.0 12.0 0.00 0.00 0.00 52 984.8
20260904223019 79 92 4.0 8.0 0.00 0.00 0.00 52 984.6